Regional Weather Roundup
Issued by NWS

Home | Current Version | Previous Version | Text Only | Print | Product List | Glossary Off
Versions: 1 2 3 4 5 6 7 8 9 10 11 12 13 14 15 16 17 18 19 20 21 22 23 24 25 26 27 28 29 30 31 32 33 34 35 36 37 38 39 40 41 42 43 44 45 46 47 48 49 50

000
ASUS43 KIND 300400
RWRIN

WEATHER ROUNDUP FOR INDIANA
NATIONAL WEATHER SERVICE INDIANAPOLIS IN
1200 AM EDT TUE MAY 30 2017

NOTE: "FAIR" INDICATES FEW OR NO CLOUDS BELOW 12,000 FEET WITH NO
SIGNIFICANT WEATHER AND/OR OBSTRUCTIONS TO VISIBILITY.

* - STATION DOES NOT REPORT WEATHER SUCH AS PRECIPITATION OR FOG.

+ - STATION NOT QUALITY CONTROLLED BY THE NATIONAL WEATHER SERVICE.
    USE DATA WITH CAUTION...ESPECIALLY DEWPOINT AND RELATIVE
    HUMIDITY OBSERVATIONS.

INZ001>003-010>013-019-020-300500-
NORTHWEST INDIANA

CITY           SKY/WX    TMP DP  RH WIND       PRES   REMARKS
MONTICELLO +   PTCLDY    61  50  66 S5        29.92S

$$

LMZ046-743>745-300500-
SOUTHERN LAKE MICHIGAN

STATION/POSITION TIME  TEMP    WIND        PRES    WAVE
                       AIR SEA DIR/SP/G            HT
                 (UTC) (F)     (DEG/KT/KT) (MB)    (FT)
BURNS HARBOR     0340   64     220/  4/  5 1012.9R
MICHIGAN CITY    0330   63     230/  3/  4   N/A
5NW MICH CITY    0350   59 56  210/  6/  8   N/A     1

$$

INZ004-005-014>016-021>024-300500-
NORTH CENTRAL INDIANA

CITY           SKY/WX    TMP DP  RH WIND       PRES   REMARKS
GOSHEN         PTCLDY    57  50  77 S3        29.90S
PERU/GRISSOM   CLOUDY    62  57  86 S7        29.92S
SOUTH BEND     CLEAR     54  48  80 CALM      29.90S

$$

INZ006>009-017-018-025>027-300500-
NORTHEAST INDIANA

CITY           SKY/WX    TMP DP  RH WIND       PRES   REMARKS
ANGOLA *+      MOCLDY    55  54  94 CALM      29.90S
FORT WAYNE     MOCLDY    62  55  77 NW3       29.92F
KENDALLVILLE + MOCLDY    58  50  73 CALM      29.91S

$$

INZ028-029-035-036-043>045-051>053-300500-
WEST CENTRAL INDIANA

CITY           SKY/WX    TMP DP  RH WIND       PRES   REMARKS
CRAWFORDSVL +  MOCLDY    59  58  95 CALM      29.95R
GREENCASTLE +  PTCLDY    61  54  77 CALM      29.96S
LAFAYETTE      MOCLDY    59  57  93 CALM      29.93R
TERRE HAUTE    CLEAR     63  57  81 CALM      29.95S

$$

INZ030>032-037>040-046>048-054>057-064-065-300500-
CENTRAL INDIANA

CITY           SKY/WX    TMP DP  RH WIND       PRES   REMARKS
CP ATTERBURY + MOCLDY    64  52  63 W3        29.95R
GREENWOOD *+   CLOUDY    66  55  67 N5        29.95F
INDIANAPOLIS   CLOUDY    64  56  75 NW7       29.94S
-EAGLE CREEK   CLOUDY    65  57  75 CALM      29.94R
KOKOMO +       CLOUDY    62  57  83 SW7       29.95R
SHELBYVILLE    CLOUDY    69  53  56 NW12      29.93R

$$

INZ033-034-041-042-049-050-058-059-300500-
EAST CENTRAL INDIANA

CITY           SKY/WX    TMP DP  RH WIND       PRES   REMARKS
MUNCIE         CLOUDY    65  57  75 NW3       29.94R
RICHMOND +     CLOUDY    64  55  72 NW10      29.95R

$$

INZ060-061-067>069-081>083-085>088-300500-
SOUTHWEST INDIANA

CITY           SKY/WX    TMP DP  RH WIND       PRES   REMARKS
EVANSVILLE     CLOUDY    65  57  75 MISG      29.98S
HUNTINGBURG *+ CLOUDY    69  58  67 SW13      29.98R

$$

INZ062-063-066-070>080-084-089>092-300500-
SOUTH CENTRAL AND SOUTHEAST INDIANA

CITY           SKY/WX    TMP DP  RH WIND       PRES   REMARKS
BLOOMINGTON    MOCLDY    69  50  50 W5        29.96R
MADISON *+     CLEAR     66  54  63 S5        29.98R
SEYMOUR +      MOCLDY    70  57  64 S8        29.94R

$$




USA.gov is the U.S. government's official web portal to all federal, state and local government web resources and services.